N900RH KMKE-KAPF

Flight info

Callsign N900RH
Flight time N/A
Altitude 40000
Route UECKR6 DELHI DCT PXV/N0477F410 DCT HITMN Q19 BULZI Q81 NICKI/N0474F430 DCT PLYER PIKKR7
Aircraft GLF5/M-SBDE2E3FGHIJ3J4J5P2RWXY/LB1D1

Departure

Time 2026-04-20 22:34
Airport General Mitchell International Airport (KMKE)

Arrival

Time N/A
Airport Naples Municipal Airport (KAPF)
Time Latitude Longitude Altitude Speed Heading
2026-04-20 22:25 42.95804 -87.89863 679 ft 0 kts 270°
2026-04-20 22:32 42.95786 -87.89880 678 ft 8 kts 184°
2026-04-20 22:32 42.95744 -87.89809 677 ft 8 kts 97°
2026-04-20 22:32 42.95744 -87.89738 678 ft 8 kts 89°
2026-04-20 22:32 42.95744 -87.89624 679 ft 16 kts 90°
2026-04-20 22:33 42.95745 -87.89425 681 ft 24 kts 91°
2026-04-20 22:33 42.95699 -87.89315 681 ft 14 kts 186°
2026-04-20 22:33 42.95356 -87.89371 675 ft 103 kts 186°
2026-04-20 22:33 42.94394 -87.89545 1153 ft 159 kts 185°
2026-04-20 22:34 42.93253 -87.89766 2447 ft 186 kts 187°
2026-04-20 22:34 42.91980 -87.89947 3690 ft 202 kts 187°
2026-04-20 22:34 42.90402 -87.90120 4072 ft 260 kts 186°
2026-04-20 22:34 42.88659 -87.90288 5732 ft 262 kts 187°
2026-04-20 22:35 42.86823 -87.89911 6966 ft 288 kts 158°
2026-04-20 22:35 42.85316 -87.88080 8352 ft 304 kts 123°
2026-04-20 22:35 42.84310 -87.85550 9649 ft 317 kts 116°
2026-04-20 22:35 42.83269 -87.82848 10896 ft 331 kts 116°
2026-04-20 22:36 42.82173 -87.80104 12319 ft 338 kts 119°
2026-04-20 22:36 42.80636 -87.77699 13596 ft 349 kts 137°
2026-04-20 22:36 42.78812 -87.75440 14903 ft 359 kts 138°
2026-04-20 22:36 42.76946 -87.73206 16272 ft 366 kts 138°
2026-04-20 22:37 42.75012 -87.70924 17550 ft 375 kts 138°
2026-04-20 22:37 42.73040 -87.68613 18835 ft 384 kts 138°
2026-04-20 22:37 42.70999 -87.66242 20092 ft 393 kts 141°
2026-04-20 22:37 42.68578 -87.64536 21264 ft 399 kts 168°
2026-04-20 22:38 42.65810 -87.63996 21658 ft 425 kts 182°
2026-04-20 22:38 42.62716 -87.63839 21944 ft 459 kts 182°
2026-04-20 22:38 42.59443 -87.63622 22957 ft 471 kts 181°
2026-04-20 22:38 42.56216 -87.63390 24178 ft 476 kts 182°
2026-04-20 22:39 42.52860 -87.63145 25157 ft 487 kts 182°
2026-04-20 22:39 42.49489 -87.62875 26231 ft 495 kts 181°
2026-04-20 22:39 42.46008 -87.62595 27198 ft 504 kts 181°
2026-04-20 22:39 42.42491 -87.62462 28203 ft 504 kts 190°
2026-04-20 22:40 42.39083 -87.63080 29460 ft 497 kts 196°
2026-04-20 22:40 42.36205 -87.63695 30591 ft 495 kts 196°
2026-04-20 22:40 42.32805 -87.64432 31782 ft 492 kts 198°
2026-04-20 22:40 42.29626 -87.65756 32901 ft 475 kts 211°
2026-04-20 22:41 42.26612 -87.67464 33858 ft 475 kts 212°
2026-04-20 22:41 42.23562 -87.69197 34962 ft 470 kts 212°
2026-04-20 22:41 42.20582 -87.70892 36015 ft 464 kts 212°
2026-04-20 22:41 42.17665 -87.72550 37066 ft 459 kts 211°
2026-04-20 22:42 42.14705 -87.74229 37915 ft 458 kts 211°
2026-04-20 22:42 42.11792 -87.75879 38817 ft 455 kts 211°
2026-04-20 22:42 42.08843 -87.77496 39676 ft 456 kts 206°
2026-04-20 22:42 42.05683 -87.78291 40218 ft 471 kts 189°
2026-04-20 22:43 42.02418 -87.78377 40777 ft 472 kts 187°
2026-04-20 22:43 41.99132 -87.78455 41235 ft 475 kts 187°
2026-04-20 22:43 41.95749 -87.78549 41274 ft 490 kts 187°
2026-04-20 22:43 41.92279 -87.78623 41298 ft 507 kts 185°
2026-04-20 22:44 41.88728 -87.78591 41302 ft 522 kts 185°
2026-04-20 22:44 41.85415 -87.78567 41283 ft 532 kts 185°
2026-04-20 22:44 41.79216 -87.78524 41278 ft 536 kts 185°
2026-04-20 22:45 41.75519 -87.78499 41288 ft 531 kts 185°
2026-04-20 22:45 41.68206 -87.78453 41271 ft 524 kts 185°
2026-04-20 22:46 41.60955 -87.78409 41301 ft 526 kts 185°
2026-04-20 22:46 41.53585 -87.78363 41303 ft 528 kts 185°
2026-04-20 22:47 41.46269 -87.78317 41288 ft 527 kts 185°
2026-04-20 22:47 41.38937 -87.78271 41289 ft 526 kts 185°
2026-04-20 22:48 41.31586 -87.78226 41257 ft 527 kts 185°
2026-04-20 22:48 41.24259 -87.78182 41257 ft 527 kts 185°
2026-04-20 22:49 41.16925 -87.78136 41305 ft 526 kts 185°
2026-04-20 22:49 41.09586 -87.78091 41307 ft 527 kts 185°
2026-04-20 22:50 41.02250 -87.78046 41305 ft 525 kts 185°
2026-04-20 22:50 40.94926 -87.78002 41320 ft 527 kts 185°
2026-04-20 22:51 40.87593 -87.77957 41260 ft 527 kts 185°
2026-04-20 22:51 40.80479 -87.77914 41265 ft 526 kts 185°
2026-04-20 22:52 40.73162 -87.77869 41267 ft 526 kts 185°
2026-04-20 22:52 40.65827 -87.77826 41256 ft 527 kts 185°
2026-04-20 22:53 40.58454 -87.77780 41262 ft 526 kts 185°
2026-04-20 22:53 40.51162 -87.77737 41252 ft 527 kts 185°
2026-04-20 22:54 40.43813 -87.77692 41278 ft 527 kts 185°
2026-04-20 22:54 40.36433 -87.77647 41274 ft 527 kts 185°
2026-04-20 22:55 40.29102 -87.77604 41289 ft 527 kts 185°
2026-04-20 22:55 40.21806 -87.77560 41318 ft 526 kts 185°
2026-04-20 22:56 40.14442 -87.77517 41321 ft 527 kts 185°
2026-04-20 22:56 40.07127 -87.77473 41328 ft 527 kts 185°
2026-04-20 22:57 39.99790 -87.77429 41289 ft 526 kts 185°
2026-04-20 22:57 39.92466 -87.77386 41329 ft 526 kts 185°
2026-04-20 22:58 39.85127 -87.77343 41277 ft 525 kts 185°
2026-04-20 22:58 39.77970 -87.77300 41329 ft 526 kts 185°
2026-04-20 22:59 39.70625 -87.77258 41310 ft 528 kts 185°
2026-04-20 22:59 39.63265 -87.77214 41291 ft 526 kts 185°
2026-04-20 23:00 39.55929 -87.77171 41330 ft 527 kts 185°
2026-04-20 23:00 39.48597 -87.77129 41321 ft 528 kts 185°
2026-04-20 23:01 39.41233 -87.77086 41288 ft 527 kts 185°
2026-04-20 23:01 39.33886 -87.77042 41283 ft 527 kts 185°
2026-04-20 23:02 39.26534 -87.77000 41308 ft 528 kts 185°
2026-04-20 23:02 39.19235 -87.76958 41305 ft 527 kts 186°
2026-04-20 23:03 39.11893 -87.76915 41275 ft 526 kts 186°
2026-04-20 23:03 39.04518 -87.76872 41316 ft 528 kts 186°
2026-04-20 23:04 38.97153 -87.76830 41312 ft 529 kts 186°
2026-04-20 23:04 38.89750 -87.76788 41275 ft 528 kts 185°
2026-04-20 23:05 38.83411 -87.76750 41332 ft 528 kts 186°
2026-04-20 23:05 38.76145 -87.76710 41311 ft 528 kts 185°
2026-04-20 23:06 38.68790 -87.76667 41305 ft 528 kts 186°
2026-04-20 23:06 38.61406 -87.76625 41300 ft 528 kts 186°
2026-04-20 23:07 38.54062 -87.76585 41312 ft 527 kts 186°
2026-04-20 23:07 38.46687 -87.76543 41322 ft 528 kts 186°
2026-04-20 23:08 38.39333 -87.76500 41297 ft 528 kts 186°
2026-04-20 23:08 38.31997 -87.76459 41285 ft 527 kts 186°
2026-04-20 23:09 38.24641 -87.76417 41302 ft 526 kts 186°
2026-04-20 23:09 38.17264 -87.76375 41297 ft 527 kts 186°
2026-04-20 23:10 38.09913 -87.76334 41306 ft 528 kts 186°
2026-04-20 23:10 38.02561 -87.76294 41329 ft 527 kts 186°
2026-04-20 23:11 37.95215 -87.76203 41317 ft 531 kts 181°
2026-04-20 23:11 37.91562 -87.75298 41327 ft 544 kts 167°
2026-04-20 23:11 37.88081 -87.73386 41323 ft 551 kts 157°
2026-04-20 23:12 37.83118 -87.70264 41305 ft 552 kts 158°
2026-04-20 23:12 37.77190 -87.66609 41324 ft 552 kts 158°
2026-04-20 23:13 37.70268 -87.62357 41310 ft 552 kts 158°
2026-04-20 23:13 37.63354 -87.58120 41276 ft 552 kts 158°
2026-04-20 23:14 37.56439 -87.53892 41307 ft 552 kts 158°
2026-04-20 23:14 37.49458 -87.49628 41266 ft 553 kts 158°
2026-04-20 23:15 37.42508 -87.45396 41265 ft 553 kts 158°
2026-04-20 23:15 37.35605 -87.41202 41281 ft 553 kts 158°
2026-04-20 23:16 37.28627 -87.36970 41286 ft 554 kts 158°
2026-04-20 23:16 37.22281 -87.33129 41264 ft 554 kts 159°
2026-04-20 23:17 37.15777 -87.29200 41277 ft 552 kts 159°
2026-04-20 23:17 37.08858 -87.25030 41258 ft 553 kts 159°
2026-04-20 23:18 37.01908 -87.20847 41296 ft 554 kts 159°
2026-04-20 23:18 36.94932 -87.16658 41273 ft 553 kts 159°
2026-04-20 23:19 36.87963 -87.12482 41263 ft 552 kts 159°
2026-04-20 23:19 36.81602 -87.08677 41265 ft 556 kts 159°
2026-04-20 23:20 36.74644 -87.04524 41270 ft 555 kts 159°
2026-04-20 23:20 36.67654 -87.00359 41265 ft 556 kts 159°
2026-04-20 23:21 36.60643 -86.96190 41274 ft 557 kts 159°
2026-04-20 23:21 36.53686 -86.92064 41270 ft 555 kts 159°
2026-04-20 23:22 36.46686 -86.87919 41260 ft 557 kts 160°
2026-04-20 23:22 36.39714 -86.83800 41271 ft 558 kts 159°
2026-04-20 23:23 36.32709 -86.79668 41288 ft 559 kts 159°
2026-04-20 23:23 36.25684 -86.75532 41303 ft 556 kts 160°
2026-04-20 23:24 36.18677 -86.71416 41293 ft 557 kts 160°
2026-04-20 23:24 36.11632 -86.67546 41287 ft 552 kts 166°
2026-04-20 23:25 36.04352 -86.64271 41293 ft 553 kts 166°
2026-04-20 23:25 35.97075 -86.60992 41311 ft 555 kts 166°
2026-04-20 23:26 35.89846 -86.57741 41312 ft 554 kts 166°
2026-04-20 23:26 35.84730 -86.55444 41309 ft 553 kts 166°
2026-04-20 23:27 35.77761 -86.52320 41302 ft 553 kts 166°
2026-04-20 23:27 35.70526 -86.49082 41293 ft 553 kts 166°
2026-04-20 23:28 35.63238 -86.45828 41275 ft 556 kts 166°
2026-04-20 23:28 35.55978 -86.42589 41276 ft 552 kts 166°
2026-04-20 23:29 35.48715 -86.39360 41281 ft 553 kts 166°
2026-04-20 23:29 35.41480 -86.36150 41284 ft 555 kts 166°
2026-04-20 23:30 35.34644 -86.33118 41270 ft 554 kts 167°
2026-04-20 23:30 35.27731 -86.30059 41263 ft 552 kts 167°
2026-04-20 23:31 35.20483 -86.26860 41278 ft 552 kts 167°
2026-04-20 23:31 35.13217 -86.23657 41283 ft 554 kts 167°
2026-04-20 23:32 35.05923 -86.20449 41281 ft 555 kts 167°
2026-04-20 23:32 34.98705 -86.17281 41281 ft 555 kts 167°
2026-04-20 23:33 34.91419 -86.14086 41273 ft 554 kts 167°
2026-04-20 23:33 34.84490 -86.11056 41263 ft 554 kts 167°
2026-04-20 23:34 34.77798 -86.08135 41267 ft 556 kts 167°
2026-04-20 23:34 34.70578 -86.04986 41265 ft 553 kts 167°
2026-04-20 23:35 34.59708 -86.00110 41264 ft 554 kts 166°
2026-04-20 23:36 34.52504 -85.96812 41282 ft 553 kts 166°
2026-04-20 23:36 34.45300 -85.93521 41270 ft 553 kts 166°
2026-04-20 23:37 34.38040 -85.90212 41271 ft 555 kts 166°
2026-04-20 23:37 34.30805 -85.86920 41278 ft 553 kts 166°
2026-04-20 23:38 34.23598 -85.83647 41265 ft 553 kts 166°
2026-04-20 23:38 34.16389 -85.80380 41292 ft 553 kts 166°
2026-04-20 23:39 34.09213 -85.77133 41269 ft 552 kts 166°
2026-04-20 23:39 34.01979 -85.73865 41275 ft 552 kts 166°
2026-04-20 23:40 33.94772 -85.70615 41273 ft 553 kts 166°
2026-04-20 23:40 33.87532 -85.67356 41270 ft 552 kts 166°
2026-04-20 23:41 33.80732 -85.64302 41277 ft 553 kts 166°
2026-04-20 23:41 33.73530 -85.61071 41258 ft 552 kts 166°
2026-04-20 23:42 33.66320 -85.57845 41279 ft 552 kts 166°
2026-04-20 23:42 33.59155 -85.54642 41267 ft 550 kts 167°
2026-04-20 23:43 33.51920 -85.51475 41269 ft 551 kts 167°
2026-04-20 23:43 33.44746 -85.48338 41272 ft 549 kts 167°
2026-04-20 23:44 33.37528 -85.45188 41266 ft 550 kts 167°
2026-04-20 23:44 33.30320 -85.42046 41275 ft 549 kts 167°
2026-04-20 23:45 33.23148 -85.38927 41276 ft 547 kts 167°
2026-04-20 23:45 33.16129 -85.35881 41279 ft 548 kts 167°
2026-04-20 23:46 33.09613 -85.33054 41255 ft 548 kts 168°
2026-04-20 23:46 33.02932 -85.30165 41267 ft 548 kts 167°
2026-04-20 23:47 32.95700 -85.27039 41273 ft 549 kts 167°
2026-04-20 23:47 32.88509 -85.23937 41271 ft 548 kts 168°
2026-04-20 23:48 32.82039 -85.21149 41264 ft 544 kts 168°
2026-04-20 23:48 32.74931 -85.18095 41255 ft 546 kts 168°
2026-04-20 23:49 32.67749 -85.15014 41250 ft 546 kts 168°
2026-04-20 23:49 32.60616 -85.11956 41251 ft 544 kts 168°
2026-04-20 23:50 32.53448 -85.08893 41261 ft 546 kts 168°
2026-04-20 23:50 32.46297 -85.05838 41251 ft 546 kts 168°
2026-04-20 23:51 32.39149 -85.02791 41234 ft 543 kts 168°
2026-04-20 23:51 32.32011 -84.99754 41256 ft 543 kts 168°
2026-04-20 23:52 32.24897 -84.96732 41238 ft 544 kts 168°
2026-04-20 23:52 32.17734 -84.93694 41232 ft 544 kts 168°
2026-04-20 23:53 32.10583 -84.90665 41277 ft 543 kts 168°
2026-04-20 23:53 32.03472 -84.87660 41256 ft 543 kts 168°
2026-04-20 23:54 31.96333 -84.84646 41239 ft 542 kts 168°
2026-04-20 23:54 31.89242 -84.81660 41276 ft 542 kts 168°
2026-04-20 23:55 31.82700 -84.79224 41269 ft 537 kts 173°